Trabzon, Turkey

7:06 AM +03 on May 30, 2017 (GMT +0300)
Trabzon

Weather History for LTCG - January, 2014

Change the Weather History Date:

Friday, January 24, 2014

  Actual Average Record
Temperature  
Mean Temperature 48 °F -  
Max Temperature 51 °F 49 °F 73 °F (2007)
Min Temperature 46 °F 38 °F 28 °F (2000)
Degree Days  
Heating Degree Days 16    
Moisture  
Dew Point 45 °F    
Average Humidity 88    
Maximum Humidity 94    
Minimum Humidity 76    
Precipitation  
Precipitation 0.04 in - - ()
Sea Level Pressure  
Sea Level Pressure 30.13 in    
Wind  
Wind Speed 5 mph ()    
Max Wind Speed 16 mph    
Max Gust Speed 17 mph    
Visibility 6.8 miles    
Events Rain    
Averages and records for this station are not official NWS values.
T = Trace of Precipitation, MM = Missing Value Source: Averaged Metar Reports

Daily Weather History Graph

Daily Weather History Graph

Search for Another Location

Airport or City:

Trip Planner

Search our weather history database for the weather conditions in past years. The results will help you decide how hot, cold, wet, or windy it might be!

Date:

Astronomy

Jan. 24, 2014 Rise Set
Actual Time 6:38 AM EET 4:27 PM EET
Civil Twilight 6:08 AM EET 4:57 PM EET
Nautical Twilight 5:35 AM EET 5:30 PM EET
Astronomical Twilight 5:02 AM EET 6:03 PM EET
Moon No Moon Rise 10:33 AM EET (1/24)
Length of Visible Light 10h 48m
Length of Day
9h 49m
Waning Gibbous, 48% of the Moon is Illuminated
Jan 24
Waning Gibbous
Jan 30
New
Feb 6
First Quarter
Feb 15
Full
Feb 22
Last Quarter

Hourly Weather History & Observations

Time (EET) Temp. Dew Point Humidity Pressure Visibility Wind Dir Wind Speed Gust Speed Precip Events Conditions
12:20 AM 51.8 °F 48.2 °F 88% 30.06 in 6.2 mi WNW 13.8 mph - N/A Rain Light Rain Showers
12:50 AM 50.0 °F 46.4 °F 87% 30.06 in 6.2 mi NW 16.1 mph - N/A   Mostly Cloudy
1:20 AM 50.0 °F 46.4 °F 87% 30.09 in 6.2 mi NW 10.4 mph - N/A   Mostly Cloudy
1:50 AM 50.0 °F 46.4 °F 87% 30.09 in 6.2 mi NW 5.8 mph - N/A   Mostly Cloudy
2:00 AM 49 °F 47 °F 89% 30.11 in 12 mi NW 5.8 mph - -   Partly Cloudy
2:20 AM 48.2 °F 46.4 °F 93% 30.09 in 6.2 mi North 6.9 mph - N/A   Mostly Cloudy
2:50 AM 48.2 °F 46.4 °F 93% 30.09 in 6.2 mi Variable 2.3 mph - N/A Rain Light Rain Showers
3:20 AM 48.2 °F 46.4 °F 93% 30.09 in 6.2 mi Calm Calm - N/A Rain Light Rain Showers
3:50 AM 48.2 °F 46.4 °F 93% 30.12 in 6.2 mi WNW 6.9 mph - N/A Rain Light Rain Showers
4:20 AM 48.2 °F 46.4 °F 93% 30.12 in 6.2 mi Calm Calm - N/A Rain Light Rain Showers
4:50 AM 48.2 °F 46.4 °F 93% 30.09 in 6.2 mi Calm Calm - N/A Rain Light Rain Showers
5:00 AM 48 °F 46 °F 90% 30.12 in 12 mi Calm Calm - - Rain Light Rain Showers
5:20 AM 48.2 °F 46.4 °F 93% 30.12 in 6.2 mi NNE 4.6 mph - N/A Rain Light Rain Showers
5:50 AM 48.2 °F 46.4 °F 93% 30.09 in 6.2 mi ENE 3.5 mph - N/A   Mostly Cloudy
6:20 AM 48.2 °F 46.4 °F 93% 30.12 in 6.2 mi East 1.2 mph - N/A   Mostly Cloudy
6:50 AM 48.2 °F 46.4 °F 93% 30.12 in 6.2 mi ESE 5.8 mph - N/A   Mostly Cloudy
7:11 AM 48.2 °F 46.4 °F 93% 30.12 in 6.2 mi SE 2.3 mph - N/A Rain Light Rain Showers
7:20 AM 48.2 °F 46.4 °F 93% 30.12 in 6.2 mi SE 3.5 mph - N/A Rain Light Rain Showers
7:50 AM 48.2 °F 46.4 °F 93% 30.12 in 6.2 mi SSE 6.9 mph - N/A   Mostly Cloudy
8:00 AM 49 °F 46 °F 87% 30.13 in 12 mi SSE 6.9 mph - - Rain Light Rain Showers
8:20 AM 50.0 °F 46.4 °F 87% 30.12 in 6.2 mi East 8.1 mph - N/A   Mostly Cloudy
8:50 AM 50.0 °F 46.4 °F 87% 30.12 in 6.2 mi WNW 3.5 mph - N/A   Mostly Cloudy
9:20 AM 50.0 °F 46.4 °F 87% 30.12 in 6.2 mi ENE 4.6 mph - N/A   Mostly Cloudy
9:50 AM 50.0 °F 46.4 °F 87% 30.12 in 6.2 mi East 4.6 mph - N/A   Mostly Cloudy
10:20 AM 50.0 °F 46.4 °F 87% 30.12 in 6.2 mi Variable 1.2 mph - N/A Rain Light Rain Showers
10:50 AM 50.0 °F 46.4 °F 87% 30.12 in 6.2 mi Calm Calm - N/A Rain Light Rain Showers
11:00 AM 50 °F 47 °F 85% 30.14 in 12 mi Calm Calm - - Rain Light Rain Showers
11:20 AM 51.8 °F 46.4 °F 82% 30.12 in 6.2 mi West 8.1 mph - N/A   Mostly Cloudy
11:50 AM 50.0 °F 46.4 °F 87% 30.12 in 6.2 mi WNW 8.1 mph - N/A Rain Light Rain Showers
12:20 PM 50.0 °F 48.2 °F 94% 30.12 in 6.2 mi NW 6.9 mph - N/A Rain Light Rain Showers
12:50 PM 48.2 °F 46.4 °F 93% 30.12 in 6.2 mi WNW 9.2 mph - N/A Rain Rain Showers
1:15 PM 48.2 °F 46.4 °F 93% 30.15 in 6.2 mi WNW 10.4 mph - N/A Rain Light Rain Showers
1:20 PM 48.2 °F 44.6 °F 87% 30.15 in 6.2 mi NW 10.4 mph - N/A Rain Light Rain Showers
1:50 PM 48.2 °F 46.4 °F 93% 30.15 in 6.2 mi NW 8.1 mph - N/A   Mostly Cloudy
2:00 PM 49 °F 46 °F 86% 30.16 in 6 mi NW 8.1 mph - - Rain Light Rain Showers
2:20 PM 48.2 °F 46.4 °F 93% 30.15 in 6.2 mi WNW 10.4 mph - N/A Rain Light Rain Showers
2:50 PM 48.2 °F 46.4 °F 93% 30.15 in 6.2 mi West 8.1 mph - N/A   Mostly Cloudy
3:20 PM 48.2 °F 44.6 °F 87% 30.18 in 6.2 mi West 4.6 mph - N/A Rain Light Rain Showers
3:50 PM 48.2 °F 44.6 °F 87% 30.18 in 6.2 mi Calm Calm - N/A   Mostly Cloudy
4:20 PM 48.2 °F 44.6 °F 87% 30.18 in 6.2 mi Calm Calm - N/A Rain Light Rain Showers
4:50 PM 48.2 °F 44.6 °F 87% 30.18 in 6.2 mi Calm Calm - N/A Rain Light Rain Showers
5:00 PM 49 °F 45 °F 83% 30.19 in 9 mi Calm Calm - - Rain Light Rain Showers
5:20 PM 50.0 °F 44.6 °F 82% 30.18 in 6.2 mi SE 4.6 mph - N/A   Mostly Cloudy
5:50 PM 50.0 °F 44.6 °F 82% 30.18 in 6.2 mi SSE 4.6 mph - N/A Rain Light Rain Showers
6:20 PM 50.0 °F 44.6 °F 82% 30.18 in 6.2 mi Calm Calm - N/A   Mostly Cloudy
6:50 PM 48.2 °F 44.6 °F 87% 30.18 in 6.2 mi ESE 8.1 mph - N/A   Mostly Cloudy
7:20 PM 48.2 °F 42.8 °F 82% 30.18 in 6.2 mi Calm Calm - N/A   Mostly Cloudy
7:50 PM 48.2 °F 42.8 °F 82% 30.15 in 6.2 mi Variable 1.2 mph - N/A   Mostly Cloudy
8:00 PM 48 °F 43 °F 76% 30.18 in 12 mi South 1.2 mph - -   Partly Cloudy
8:20 PM 46.4 °F 42.8 °F 87% 30.15 in 6.2 mi Variable 1.2 mph - N/A   Mostly Cloudy
8:50 PM 48.2 °F 42.8 °F 82% 30.15 in 6.2 mi SSW 4.6 mph - N/A   Mostly Cloudy
9:20 PM 48.2 °F 42.8 °F 82% 30.15 in 6.2 mi SW 5.8 mph - N/A   Mostly Cloudy
9:50 PM 48.2 °F 42.8 °F 82% 30.15 in 6.2 mi Calm Calm - N/A   Mostly Cloudy
10:20 PM 48.2 °F 42.8 °F 82% 30.15 in 6.2 mi Variable 2.3 mph - N/A   Mostly Cloudy
10:50 PM 46.4 °F 42.8 °F 87% 30.15 in 6.2 mi Calm Calm - N/A   Mostly Cloudy
11:00 PM 47 °F 42 °F 79% 30.16 in 12 mi Calm Calm - -   Partly Cloudy
11:20 PM 48.2 °F 42.8 °F 82% 30.15 in 6.2 mi Variable 3.5 mph 17.3 mph N/A   Mostly Cloudy
11:50 PM 48.2 °F 42.8 °F 82% 30.12 in 6.2 mi SSE 3.5 mph - N/A   Mostly Cloudy